Delaware, OH

10:09 AM EDT on July 24, 2016 (GMT -0400)
Delaware Municipal

Weather History for KDLZ - May, 2013

Change the Weather History Date:

Friday, May 10, 2013

  Actual Average Record
Temperature  
Mean Temperature 63 °F -  
Max Temperature 69 °F 66 °F 92 °F (1936)
Min Temperature 57 °F 43 °F 23 °F (1966)
Degree Days  
Heating Degree Days 2    
Growing Degree Days 13 (Base 50)    
Moisture  
Dew Point 58 °F    
Average Humidity 85    
Maximum Humidity 94    
Minimum Humidity 68    
Precipitation  
Precipitation 0.58 in - - ()
Sea Level Pressure  
Sea Level Pressure 29.87 in    
Wind  
Wind Speed 7 mph (SSW)    
Max Wind Speed 20 mph    
Max Gust Speed 34 mph    
Visibility 9 miles    
Events Rain , Thunderstorm    
Averages and records for this station are not official NWS values.
T = Trace of Precipitation, MM = Missing Value Source: NWS Daily Summary

Daily Weather History Graph

Daily Weather History Graph

Search for Another Location

Airport or City:

Trip Planner

Search our weather history database for the weather conditions in past years. The results will help you decide how hot, cold, wet, or windy it might be!

Date:

Astronomy

May. 10, 2013 Rise Set
Actual Time 6:21 AM EDT 8:37 PM EDT
Civil Twilight 5:50 AM EDT 9:07 PM EDT
Nautical Twilight 5:13 AM EDT 9:45 PM EDT
Astronomical Twilight 4:32 AM EDT 10:26 PM EDT
Moon 6:44 AM EDT (5/10) 9:25 PM EDT (5/10)
Length of Visible Light 15h 16m
Length of Day
14h 15m
New Moon, 0% of the Moon is Illuminated
May 10
New Moon
May 18
First Quarter
May 25
Full
May 31
Last Quarter
Jun 8
New

Hourly Weather History & Observations

Time (EDT) Temp. Dew Point Humidity Pressure Visibility Wind Dir Wind Speed Gust Speed Precip Events Conditions
12:19 AM 64.4 °F 53.6 °F 68% 29.98 in 10.0 mi Calm Calm - N/A   Light Drizzle
12:38 AM 62.6 °F 53.6 °F 72% 29.97 in 10.0 mi Calm Calm - N/A   Light Drizzle
12:59 AM 62.6 °F 53.6 °F 72% 29.96 in 10.0 mi SE 3.5 mph - N/A   Overcast
1:59 AM 62.6 °F 55.4 °F 77% 29.95 in 10.0 mi SE 6.9 mph - N/A Rain Rain
2:19 AM 62.6 °F 55.4 °F 77% 29.93 in 10.0 mi ESE 6.9 mph - N/A   Light Drizzle
2:38 AM 62.6 °F 55.4 °F 77% 29.92 in 10.0 mi SE 6.9 mph - N/A Rain , Thunderstorm Rain
2:59 AM 60.8 °F 53.6 °F 77% 29.98 in 10.0 mi West 13.8 mph 27.6 mph 0.02 in Rain , Thunderstorm Heavy Thunderstorms and Rain
3:18 AM 59.0 °F 55.4 °F 88% 29.97 in 5.0 mi WSW 9.2 mph - 0.25 in Rain , Thunderstorm Heavy Thunderstorms and Rain
3:38 AM 59.0 °F 55.4 °F 88% 29.95 in 10.0 mi SW 6.9 mph - 0.29 in Rain Light Rain
3:59 AM 59.0 °F 55.4 °F 88% 29.94 in 10.0 mi SSE 5.8 mph - 0.29 in   Light Drizzle
4:18 AM 59.0 °F 57.2 °F 94% 29.93 in 10.0 mi SSE 5.8 mph - N/A   Mostly Cloudy
4:59 AM 59.0 °F 55.4 °F 88% 29.92 in 10.0 mi South 6.9 mph - N/A   Scattered Clouds
5:18 AM 59.0 °F 55.4 °F 88% 29.91 in 10.0 mi South 6.9 mph - N/A Thunderstorm Scattered Clouds
5:39 AM 59.0 °F 55.4 °F 88% 29.91 in 10.0 mi South 5.8 mph - N/A   Clear
5:58 AM 59.0 °F 55.4 °F 88% 29.90 in 10.0 mi South 8.1 mph - N/A   Clear
6:19 AM 59.0 °F 55.4 °F 88% 29.90 in 10.0 mi South 5.8 mph - N/A   Clear
6:39 AM 59.0 °F 55.4 °F 88% 29.90 in 10.0 mi South 6.9 mph - N/A   Clear
6:58 AM 57.2 °F 55.4 °F 94% 29.90 in 10.0 mi SSE 4.6 mph - N/A   Clear
7:18 AM 59.0 °F 55.4 °F 88% 29.90 in 10.0 mi South 5.8 mph - N/A   Scattered Clouds
7:39 AM 59.0 °F 55.4 °F 88% 29.90 in 10.0 mi SSW 4.6 mph - N/A   Clear
8:19 AM 60.8 °F 57.2 °F 88% 29.90 in 10.0 mi South 8.1 mph - N/A   Scattered Clouds
8:39 AM 60.8 °F 57.2 °F 88% 29.90 in 10.0 mi SSW 6.9 mph - N/A   Clear
9:19 AM 62.6 °F 59.0 °F 88% 29.90 in 10.0 mi South 8.1 mph - N/A   Scattered Clouds
9:39 AM 64.4 °F 59.0 °F 83% 29.90 in 10.0 mi SSW 8.1 mph - N/A   Scattered Clouds
9:58 AM 64.4 °F 59.0 °F 83% 29.90 in 10.0 mi South 12.7 mph - N/A   Scattered Clouds
10:19 AM 64.4 °F 59.0 °F 83% 29.89 in 10.0 mi SSW 9.2 mph - N/A   Scattered Clouds
10:39 AM 66.2 °F 59.0 °F 78% 29.89 in 10.0 mi SSW 9.2 mph - N/A   Scattered Clouds
10:58 AM 68.0 °F 60.8 °F 78% 29.89 in 10.0 mi SSW 10.4 mph - N/A   Clear
11:19 AM 68.0 °F 60.8 °F 78% 29.89 in 10.0 mi SW 10.4 mph - N/A   Clear
11:39 AM 68.0 °F 60.8 °F 78% 29.89 in 10.0 mi SSW 10.4 mph - N/A   Scattered Clouds
11:58 AM 69.8 °F 60.8 °F 73% 29.89 in 10.0 mi SSW 12.7 mph 18.4 mph N/A   Scattered Clouds
12:19 PM 69.8 °F 60.8 °F 73% 29.89 in 10.0 mi SSW 9.2 mph 17.3 mph N/A   Mostly Cloudy
12:39 PM 69.8 °F 60.8 °F 73% 29.88 in 10.0 mi SSW 10.4 mph - N/A   Overcast
1:19 PM 69.8 °F 60.8 °F 73% 29.86 in 10.0 mi SSW 12.7 mph - N/A   Mostly Cloudy
1:38 PM 69.8 °F 60.8 °F 73% 29.85 in 10.0 mi SW 10.4 mph 13.8 mph N/A   Overcast
1:58 PM 66.2 °F 60.8 °F 83% 29.87 in 7.0 mi WSW 10.4 mph - 0.01 in Rain Light Rain
2:19 PM 62.6 °F 57.2 °F 82% 29.87 in 5.0 mi SW 9.2 mph - 0.09 in Rain , Thunderstorm Rain
2:38 PM 60.8 °F 55.4 °F 82% 29.88 in 5.0 mi SW 19.6 mph 34.5 mph 0.12 in Rain Rain
2:58 PM 60.8 °F 55.4 °F 82% 29.87 in 5.0 mi SW 13.8 mph 24.2 mph 0.16 in Rain , Thunderstorm Thunderstorms and Rain
3:19 PM 59.0 °F 55.4 °F 88% 29.88 in 5.0 mi WSW 11.5 mph 21.9 mph 0.06 in Rain Rain
3:38 PM 60.8 °F 55.4 °F 82% 29.87 in 10.0 mi SW 10.4 mph - 0.07 in Rain Rain
3:59 PM 60.8 °F 57.2 °F 88% 29.86 in 10.0 mi SW 9.2 mph - 0.07 in   Light Drizzle
4:19 PM 62.6 °F 59.0 °F 88% 29.85 in 10.0 mi SW 11.5 mph - N/A   Drizzle
4:38 PM 60.8 °F 59.0 °F 94% 29.85 in 7.0 mi SW 9.2 mph - N/A   Drizzle
4:59 PM 60.8 °F 59.0 °F 94% 29.85 in 7.0 mi SSW 8.1 mph - 0.01 in Rain Light Rain
5:19 PM 62.6 °F 59.0 °F 88% 29.83 in 10.0 mi SSW 6.9 mph - 0.01 in   Drizzle
5:38 PM 62.6 °F 59.0 °F 88% 29.83 in 10.0 mi SSW 8.1 mph - 0.01 in Rain Rain
5:59 PM 62.6 °F 59.0 °F 88% 29.83 in 10.0 mi SW 6.9 mph - 0.02 in Rain Rain
6:19 PM 62.6 °F 59.0 °F 88% 29.82 in 10.0 mi SSW 8.1 mph - N/A   Overcast
6:38 PM 62.6 °F 59.0 °F 88% 29.81 in 10.0 mi SSW 8.1 mph - N/A   Overcast
6:59 PM 62.6 °F 59.0 °F 88% 29.80 in 10.0 mi South 5.8 mph - N/A   Overcast
7:19 PM 62.6 °F 59.0 °F 88% 29.80 in 10.0 mi South 6.9 mph - N/A   Overcast
7:38 PM 62.6 °F 59.0 °F 88% 29.80 in 10.0 mi SSW 5.8 mph - N/A   Overcast
7:59 PM 62.6 °F 59.0 °F 88% 29.80 in 10.0 mi SSW 5.8 mph - N/A   Overcast
8:19 PM 62.6 °F 59.0 °F 88% 29.81 in 10.0 mi SSW 5.8 mph - N/A   Overcast
8:39 PM 62.6 °F 59.0 °F 88% 29.81 in 10.0 mi SSW 5.8 mph - N/A   Light Drizzle
8:59 PM 60.8 °F 59.0 °F 94% 29.81 in 10.0 mi SSW 6.9 mph - N/A   Overcast
9:18 PM 60.8 °F 59.0 °F 94% 29.82 in 10.0 mi SW 4.6 mph - N/A   Overcast
9:39 PM 60.8 °F 59.0 °F 94% 29.82 in 10.0 mi SSW 5.8 mph - N/A Rain Rain
9:59 PM 60.8 °F 59.0 °F 94% 29.82 in 10.0 mi SSW 8.1 mph - N/A   Light Drizzle
10:18 PM 60.8 °F 59.0 °F 94% 29.83 in 10.0 mi SW 9.2 mph - N/A Rain Light Rain
10:39 PM 60.8 °F 59.0 °F 94% 29.83 in 10.0 mi SW 9.2 mph - N/A   Overcast
10:59 PM 60.8 °F 59.0 °F 94% 29.82 in 7.0 mi SW 6.9 mph - N/A   Overcast
11:18 PM 60.8 °F 59.0 °F 94% 29.82 in 7.0 mi SW 6.9 mph - N/A   Overcast
11:39 PM 60.8 °F 59.0 °F 94% 29.82 in 7.0 mi SW 4.6 mph - N/A   Overcast
11:59 PM 60.8 °F 59.0 °F 94% 29.83 in 7.0 mi West 12.7 mph 17.3 mph N/A Rain Light Rain